GW1975 Weather Reports


Display with metric or nautical units.
time (UTC)temp
F
wind
direction
speed
MPH
gust
MPH
rain 1hr
in
rain 24hr
in
rain mn
in
humidity
%
barometer
mb
20260901150736 86 246 4.0 5.0 0.00 0.00 0.00 57 1019.0
20260901150236 87 264 5.0 8.0 0.00 0.00 0.00 56 1019.0
20260901145735 86 236 5.0 6.0 0.00 0.00 0.00 58 1019.0
20260901145235 87 236 3.0 8.0 0.00 0.00 0.00 57 1019.0
20260901144736 87 272 4.0 6.0 0.00 0.00 0.00 57 1019.0
20260901144235 87 241 4.0 6.0 0.00 0.00 0.00 57 1019.0
20260901143736 87 250 2.0 5.0 0.00 0.00 0.00 57 1019.0
20260901143236 86 264 6.0 7.0 0.00 0.00 0.00 57 1019.0
20260901142739 85 239 3.0 5.0 0.00 0.00 0.00 58 1019.0
20260901142236 86 277 3.0 6.0 0.00 0.00 0.00 59 1019.0
20260901141736 85 265 4.0 4.0 0.00 0.00 0.00 60 1019.0
20260901141235 85 246 3.0 5.0 0.00 0.00 0.00 61 1019.0
20260901140736 84 251 3.0 5.0 0.00 0.00 0.00 60 1019.0
20260901140235 84 247 3.0 5.0 0.00 0.00 0.00 61 1019.0
20260901135736 84 247 3.0 4.0 0.00 0.00 0.00 62 1019.0
20260901135235 84 260 4.0 5.0 0.00 0.00 0.00 62 1019.0
20260901134735 84 263 3.0 5.0 0.00 0.00 0.00 61 1019.0
20260901134235 84 243 5.0 5.0 0.00 0.00 0.00 61 1019.0
20260901133736 84 239 3.0 5.0 0.00 0.00 0.00 61 1019.0
20260901133238 84 215 2.0 2.0 0.00 0.00 0.00 62 1019.0
20260901132737 84 246 2.0 3.0 0.00 0.00 0.00 63 1019.0
20260901132236 84 239 2.0 3.0 0.00 0.00 0.00 63 1019.0
20260901131735 83 195 1.0 2.0 0.00 0.00 0.00 65 1019.0
20260901131239 82 216 0.0 3.0 0.00 0.00 0.00 66 1019.0
20260901130736 81 244 1.0 3.0 0.00 0.00 0.00 67 1019.0
20260901130237 80 218 1.0 3.0 0.00 0.00 0.00 68 1019.0
20260901125735 80 202 2.0 2.0 0.00 0.00 0.00 70 1019.0
20260901125235 79 196 1.0 2.0 0.00 0.00 0.00 72 1019.0
20260901124736 78 213 2.0 2.0 0.00 0.00 0.00 73 1019.0
20260901124235 78 258 0.0 2.0 0.00 0.00 0.00 74 1019.0
20260901123735 77 216 2.0 2.0 0.00 0.00 0.00 74 1018.0
20260901123235 77 182 1.0 2.0 0.00 0.00 0.00 74 1019.0
20260901122736 77 228 1.0 2.0 0.00 0.00 0.00 75 1019.0
20260901122235 77 211 2.0 2.0 0.00 0.00 0.00 75 1019.0
20260901121735 77 207 1.0 2.0 0.00 0.00 0.00 75 1019.0
20260901121235 76 222 1.0 2.0 0.00 0.00 0.00 76 1018.0
20260901120736 76 215 2.0 2.0 0.00 0.00 0.00 76 1018.0
20260901120236 76 214 1.0 2.0 0.00 0.00 0.00 76 1018.0
20260901115735 76 224 1.0 2.0 0.00 0.00 0.00 76 1018.0
20260901115235 76 226 1.0 2.0 0.00 0.00 0.00 76 1018.0
20260901114737 76 222 2.0 2.0 0.00 0.00 0.00 77 1018.0
20260901114236 76 207 1.0 2.0 0.00 0.00 0.00 77 1018.0
20260901113735 76 196 0.0 2.0 0.00 0.00 0.00 77 1018.0
20260901113235 76 228 1.0 2.0 0.00 0.00 0.00 76 1018.0
20260901112735 76 162 0.0 2.0 0.00 0.00 0.00 76 1018.0
20260901112236 76 244 1.0 2.0 0.00 0.00 0.00 76 1018.0
20260901111736 76 189 1.0 2.0 0.00 0.00 0.00 76 1018.0
20260901111236 76 231 1.0 2.0 0.00 0.00 0.00 76 1018.0
20260901110736 76 216 1.0 2.0 0.00 0.00 0.00 75 1018.0
20260901110239 77 225 2.0 2.0 0.00 0.00 0.00 75 1018.0
20260901105736 77 222 1.0 2.0 0.00 0.00 0.00 75 1018.0
20260901105236 77 229 2.0 2.0 0.00 0.00 0.00 75 1018.0
20260901104735 77 212 0.0 2.0 0.00 0.00 0.00 75 1018.0
20260901104235 77 227 0.0 2.0 0.00 0.00 0.00 75 1018.0
20260901103736 77 240 1.0 2.0 0.00 0.00 0.00 74 1018.0
20260901103235 77 244 1.0 2.0 0.00 0.00 0.00 74 1018.0
20260901102735 77 239 1.0 2.0 0.00 0.00 0.00 74 1018.0
20260901102236 77 208 1.0 2.0 0.00 0.00 0.00 74 1018.0
20260901101736 77 181 1.0 2.0 0.00 0.00 0.00 74 1018.0
20260901101235 77 220 0.0 2.0 0.00 0.00 0.00 73 1017.0
20260901100735 77 219 1.0 2.0 0.00 0.00 0.00 73 1017.0
20260901100235 78 220 1.0 2.0 0.00 0.00 0.00 73 1017.0
20260901095735 78 221 1.0 2.0 0.00 0.00 0.00 72 1017.0
20260901095235 78 239 1.0 2.0 0.00 0.00 0.00 73 1017.0
20260901094736 78 194 2.0 2.0 0.00 0.00 0.00 72 1017.0
20260901094235 78 230 2.0 2.0 0.00 0.00 0.00 72 1017.0
20260901093735 78 222 1.0 2.0 0.00 0.00 0.00 72 1017.0
20260901093235 78 235 1.0 2.0 0.00 0.00 0.00 71 1017.0
20260901092736 78 240 1.0 2.0 0.00 0.00 0.00 71 1017.0
20260901092236 78 222 1.0 1.0 0.00 0.00 0.00 70 1017.0
20260901091736 79 240 1.0 2.0 0.00 0.00 0.00 70 1017.0
20260901091236 79 252 1.0 1.0 0.00 0.00 0.00 70 1017.0
20260901090735 79 249 1.0 1.0 0.00 0.00 0.00 70 1017.0
20260901090236 79 253 1.0 2.0 0.00 0.00 0.00 70 1017.0
20260901085735 79 247 1.0 2.0 0.00 0.00 0.00 69 1017.0
20260901085236 79 227 1.0 2.0 0.00 0.00 0.00 69 1017.0
20260901084735 79 245 2.0 2.0 0.00 0.00 0.00 69 1017.0
20260901084235 79 255 0.0 2.0 0.00 0.00 0.00 69 1017.0
20260901083735 80 243 1.0 1.0 0.00 0.00 0.00 68 1017.0
20260901083236 80 243 0.0 2.0 0.00 0.00 0.00 68 1017.0
20260901082736 80 241 1.0 2.0 0.00 0.00 0.00 68 1017.0
20260901082235 80 236 1.0 2.0 0.00 0.00 0.00 68 1017.0
20260901081736 80 238 1.0 2.0 0.00 0.00 0.00 67 1017.0
20260901081236 80 227 2.0 2.0 0.00 0.00 0.00 67 1017.0
20260901080736 80 234 1.0 3.0 0.00 0.00 0.00 67 1017.0
20260901080236 80 211 0.0 2.0 0.00 0.00 0.00 67 1017.0
20260901075736 80 207 1.0 2.0 0.00 0.00 0.00 67 1017.0
20260901075235 80 231 2.0 3.0 0.00 0.00 0.00 67 1017.0
20260901074736 80 246 1.0 2.0 0.00 0.00 0.00 68 1017.0
20260901074235 80 235 2.0 2.0 0.00 0.00 0.00 68 1017.0
20260901073738 80 251 1.0 2.0 0.00 0.00 0.00 68 1017.0
20260901073235 80 230 1.0 2.0 0.00 0.00 0.00 68 1017.0
20260901072736 80 224 1.0 2.0 0.00 0.00 0.00 68 1016.0
20260901072235 80 258 0.0 2.0 0.00 0.00 0.00 68 1017.0
20260901071735 80 240 1.0 2.0 0.00 0.00 0.00 68 1017.0
20260901071236 80 229 2.0 2.0 0.00 0.00 0.00 68 1017.0
20260901070735 80 223 2.0 2.0 0.00 0.00 0.00 68 1017.0
20260901070235 80 243 1.0 2.0 0.00 0.00 0.00 68 1017.0
20260901065735 80 236 1.0 2.0 0.00 0.00 0.00 69 1017.0
20260901065235 80 230 1.0 2.0 0.00 0.00 0.00 69 1017.0
20260901064735 80 231 1.0 2.0 0.00 0.00 0.00 69 1017.0
20260901064236 80 247 2.0 2.0 0.00 0.00 0.00 69 1017.0
20260901063737 80 259 1.0 2.0 0.00 0.00 0.00 69 1017.0
20260901063236 80 225 0.0 2.0 0.00 0.00 0.00 69 1017.0
20260901062735 80 232 2.0 2.0 0.00 0.00 0.00 69 1017.0
20260901062236 80 233 1.0 2.0 0.00 0.00 0.00 69 1017.0
20260901061735 80 250 1.0 2.0 0.00 0.00 0.00 69 1017.0
20260901061236 80 236 1.0 2.0 0.00 0.00 0.00 69 1017.0
20260901060744 80 256 1.0 2.0 0.00 0.00 0.00 69 1017.0
20260901060236 80 233 0.0 2.0 0.00 0.00 0.00 69 1017.0
20260901055736 80 274 1.0 2.0 0.00 0.00 0.00 69 1017.0
20260901055235 80 256 2.0 2.0 0.00 0.00 0.00 69 1017.0
20260901054736 80 203 0.0 2.0 0.00 0.00 0.00 69 1017.0
20260901054235 80 228 2.0 2.0 0.00 0.00 0.00 69 1017.0
20260901053735 80 255 1.0 2.0 0.00 0.00 0.00 68 1017.0
20260901053236 80 249 1.0 2.0 0.00 0.00 0.00 68 1017.0
20260901052737 80 251 1.0 2.0 0.00 0.00 0.00 68 1017.0
20260901052235 80 227 2.0 2.0 0.00 0.00 0.00 68 1017.0
20260901051735 81 255 2.0 2.0 0.00 0.00 0.00 68 1017.0
20260901051235 81 245 2.0 2.0 0.00 0.00 0.00 68 1017.0
20260901050735 81 255 1.0 2.0 0.00 0.00 0.00 68 1017.0
20260901050236 81 243 1.0 2.0 0.00 0.00 0.00 67 1017.0
20260901045735 81 239 1.0 2.0 0.00 0.00 0.00 67 1017.0
20260901045236 81 243 1.0 2.0 0.00 0.00 0.00 67 1017.0
20260901044735 81 268 1.0 2.0 0.00 0.00 0.00 67 1017.0
20260901044235 81 283 1.0 3.0 0.00 0.00 0.00 67 1017.0
20260901043735 81 257 2.0 2.0 0.00 0.00 0.00 67 1017.0
20260901043235 81 230 2.0 2.0 0.00 0.00 0.00 67 1017.0
20260901042736 81 241 1.0 2.0 0.00 0.00 0.00 66 1017.0
20260901042236 81 267 1.0 2.0 0.00 0.00 0.00 66 1017.0
20260901041735 81 268 1.0 2.0 0.00 0.00 0.00 66 1017.0
20260901041235 82 258 2.0 2.0 0.00 0.00 0.00 65 1017.0
20260901040735 82 244 2.0 3.0 0.00 0.00 0.00 65 1017.0
20260901040235 82 236 2.0 2.0 0.00 0.00 0.00 65 1017.0
20260901035736 82 247 2.0 2.0 0.00 0.00 0.00 64 1017.0
20260901035236 82 264 2.0 2.0 0.00 0.00 0.00 64 1017.0
20260901034735 82 262 1.0 2.0 0.00 0.00 0.00 64 1017.0
20260901034236 82 259 2.0 2.0 0.00 0.00 0.00 64 1017.0
20260901033736 82 271 1.0 2.0 0.00 0.00 0.00 64 1017.0
20260901033235 83 264 2.0 2.0 0.00 0.00 0.00 64 1017.0
20260901032736 83 266 1.0 2.0 0.00 0.00 0.00 64 1017.0
20260901032236 83 254 1.0 2.0 0.00 0.00 0.00 64 1017.0
20260901031735 83 258 1.0 2.0 0.00 0.00 0.00 64 1017.0
20260901031236 83 250 1.0 2.0 0.00 0.00 0.00 64 1017.0
20260901030736 83 252 1.0 2.0 0.00 0.00 0.00 64 1017.0
20260901030235 83 242 1.0 2.0 0.00 0.00 0.00 63 1017.0
20260901025735 83 263 1.0 2.0 0.00 0.00 0.00 63 1017.0
20260901025235 83 269 1.0 2.0 0.00 0.00 0.00 63 1017.0
20260901024736 84 253 0.0 2.0 0.00 0.00 0.00 63 1017.0
20260901024236 84 267 1.0 2.0 0.00 0.00 0.00 62 1017.0
20260901023735 84 266 1.0 2.0 0.00 0.00 0.00 62 1017.0
20260901023236 84 266 1.0 2.0 0.00 0.00 0.00 62 1017.0
20260901022735 84 266 1.0 2.0 0.00 0.00 0.00 61 1017.0
20260901022236 84 268 1.0 1.0 0.00 0.00 0.00 61 1017.0
20260901021737 85 257 1.0 3.0 0.00 0.00 0.00 61 1017.0
20260901021236 85 252 1.0 2.0 0.00 0.00 0.00 60 1017.0
20260901020735 85 256 1.0 2.0 0.00 0.00 0.00 59 1017.0
20260901020236 86 255 1.0 2.0 0.00 0.00 0.00 59 1017.0
20260901015735 86 279 1.0 2.0 0.00 0.00 0.00 58 1016.0
20260901015236 86 264 1.0 2.0 0.00 0.00 0.00 58 1016.0
20260901014736 86 258 1.0 2.0 0.00 0.00 0.00 57 1016.0
20260901014237 87 256 1.0 2.0 0.00 0.00 0.00 56 1016.0
20260901013735 87 262 2.0 2.0 0.00 0.00 0.00 55 1016.0
20260901013235 87 245 1.0 2.0 0.00 0.00 0.00 54 1016.0
20260901012735 88 253 2.0 2.0 0.00 0.00 0.00 53 1016.0
20260901012236 89 252 1.0 2.0 0.00 0.00 0.00 52 1016.0
20260901011255 89 258 2.0 2.0 0.00 0.00 0.00 50 1016.0
20260901010735 90 264 1.0 2.0 0.00 0.00 0.00 49 1016.0
20260901010236 90 258 2.0 2.0 0.00 0.00 0.00 48 1016.0
20260901005735 91 260 1.0 2.0 0.00 0.00 0.00 47 1016.0
20260901005235 91 243 2.0 2.0 0.00 0.00 0.00 46 1016.0
20260901004738 92 249 2.0 2.0 0.00 0.00 0.00 45 1016.0
20260901004235 92 252 2.0 2.0 0.00 0.00 0.00 44 1016.0
20260901003735 93 252 2.0 2.0 0.00 0.00 0.00 43 1016.0
20260901003236 93 250 2.0 2.0 0.00 0.00 0.00 42 1016.0
20260901002736 94 260 1.0 2.0 0.00 0.00 0.00 41 1016.0
20260901002235 94 248 1.0 3.0 0.00 0.00 0.00 40 1016.0
20260901001735 95 245 2.0 3.0 0.00 0.00 0.00 38 1016.0
20260901001235 95 233 2.0 2.0 0.00 0.00 0.00 37 1016.0
20260901000736 96 252 2.0 2.0 0.00 0.00 0.00 37 1016.0
20260901000235 96 253 2.0 2.0 0.00 0.00 0.00 37 1016.0
20260831235736 97 251 2.0 2.0 0.00 0.00 0.00 37 1016.0
20260831235235 97 250 2.0 3.0 0.00 0.00 0.00 36 1016.0
20260831234735 97 244 2.0 3.0 0.00 0.00 0.00 37 1016.0
20260831234236 97 239 2.0 4.0 0.00 0.00 0.00 36 1016.0
20260831233735 98 235 3.0 4.0 0.00 0.00 0.00 36 1016.0
20260831233236 98 235 3.0 5.0 0.00 0.00 0.00 36 1016.0
20260831232735 98 240 3.0 3.0 0.00 0.00 0.00 37 1016.0
20260831232236 98 249 3.0 4.0 0.00 0.00 0.00 36 1016.0
20260831231735 99 275 3.0 5.0 0.00 0.00 0.00 35 1016.0
20260831231235 99 259 4.0 5.0 0.00 0.00 0.00 35 1016.0
20260831230736 99 265 5.0 5.0 0.00 0.00 0.00 35 1016.0
20260831230235 100 240 4.0 4.0 0.00 0.00 0.00 34 1016.0
20260831225735 99 234 2.0 5.0 0.00 0.00 0.00 34 1016.0
20260831225235 100 253 2.0 4.0 0.00 0.00 0.00 34 1016.0
20260831224735 99 247 4.0 5.0 0.00 0.00 0.00 35 1015.0
20260831224235 99 264 3.0 6.0 0.00 0.00 0.00 34 1015.0
20260831223735 100 265 3.0 5.0 0.00 0.00 0.00 35 1015.0
20260831223235 100 219 2.0 5.0 0.00 0.00 0.00 34 1015.0
20260831222736 100 242 1.0 3.0 0.00 0.00 0.00 35 1016.0
20260831222235 99 214 1.0 4.0 0.00 0.00 0.00 35 1016.0
20260831221736 100 241 5.0 5.0 0.00 0.00 0.00 35 1015.0
20260831221236 99 243 1.0 3.0 0.00 0.00 0.00 35 1016.0
20260831220736 99 266 3.0 5.0 0.00 0.00 0.00 34 1016.0
20260831220235 100 241 3.0 5.0 0.00 0.00 0.00 33 1016.0
20260831215735 100 236 5.0 8.0 0.00 0.00 0.00 35 1016.0
20260831215235 100 265 4.0 4.0 0.00 0.00 0.00 35 1016.0
20260831214735 100 230 5.0 5.0 0.00 0.00 0.00 35 1015.0
20260831214236 99 146 2.0 3.0 0.00 0.00 0.00 35 1016.0
20260831213735 99 226 1.0 5.0 0.00 0.00 0.00 35 1016.0
20260831213236 99 245 0.0 6.0 0.00 0.00 0.00 34 1016.0
20260831212735 100 266 6.0 6.0 0.00 0.00 0.00 34 1015.0
20260831212236 99 242 4.0 7.0 0.00 0.00 0.00 35 1016.0
20260831211736 99 263 5.0 5.0 0.00 0.00 0.00 34 1015.0
20260831211235 99 231 4.0 6.0 0.00 0.00 0.00 34 1015.0
20260831210736 99 230 4.0 6.0 0.00 0.00 0.00 34 1016.0
20260831210236 99 221 2.0 4.0 0.00 0.00 0.00 35 1016.0
20260831205735 99 252 2.0 5.0 0.00 0.00 0.00 34 1016.0
20260831205236 98 229 3.0 4.0 0.00 0.00 0.00 35 1016.0
20260831204735 99 275 4.0 6.0 0.00 0.00 0.00 36 1016.0
20260831204236 98 235 2.0 7.0 0.00 0.00 0.00 36 1016.0
20260831203735 98 228 0.0 5.0 0.00 0.00 0.00 36 1016.0
20260831203236 98 231 2.0 4.0 0.00 0.00 0.00 38 1016.0
20260831202735 97 201 2.0 4.0 0.00 0.00 0.00 37 1016.0
20260831202236 98 249 2.0 3.0 0.00 0.00 0.00 38 1016.0
20260831201735 98 234 2.0 3.0 0.00 0.00 0.00 38 1016.0
20260831201236 98 244 4.0 6.0 0.00 0.00 0.00 39 1016.0
20260831200740 98 243 2.0 4.0 0.00 0.00 0.00 38 1016.0
20260831200235 97 136 2.0 3.0 0.00 0.00 0.00 39 1016.0
20260831195735 97 227 3.0 6.0 0.00 0.00 0.00 39 1016.0
20260831195236 97 303 2.0 3.0 0.00 0.00 0.00 38 1016.0
20260831194736 97 289 4.0 6.0 0.00 0.00 0.00 37 1016.0
20260831194235 96 256 6.0 6.0 0.00 0.00 0.00 38 1016.0
20260831193736 96 227 1.0 3.0 0.00 0.00 0.00 40 1016.0
20260831193235 96 231 5.0 5.0 0.00 0.00 0.00 39 1016.0
20260831192735 96 268 4.0 5.0 0.00 0.00 0.00 38 1016.0
20260831192235 96 232 6.0 7.0 0.00 0.00 0.00 40 1017.0
20260831191736 96 239 3.0 5.0 0.00 0.00 0.00 39 1017.0
20260831191236 96 249 4.0 5.0 0.00 0.00 0.00 39 1017.0
20260831190735 96 266 4.0 5.0 0.00 0.00 0.00 40 1017.0
20260831190235 95 237 3.0 4.0 0.00 0.00 0.00 40 1017.0
20260831185735 95 257 4.0 4.0 0.00 0.00 0.00 41 1017.0
20260831185235 95 245 5.0 5.0 0.00 0.00 0.00 42 1017.0
20260831184735 94 265 4.0 6.0 0.00 0.00 0.00 42 1017.0
20260831184235 94 267 5.0 6.0 0.00 0.00 0.00 41 1017.0
20260831183735 94 271 3.0 5.0 0.00 0.00 0.00 41 1017.0
20260831183236 94 252 4.0 4.0 0.00 0.00 0.00 42 1017.0
20260831182737 94 265 5.0 7.0 0.00 0.00 0.00 41 1017.0
20260831182236 94 266 4.0 6.0 0.00 0.00 0.00 43 1017.0
20260831181736 93 253 6.0 7.0 0.00 0.00 0.00 43 1017.0
20260831181236 93 266 3.0 5.0 0.00 0.00 0.00 43 1017.0
20260831180735 93 261 2.0 6.0 0.00 0.00 0.00 42 1017.0
20260831180235 93 262 2.0 4.0 0.00 0.00 0.00 43 1018.0
20260831175736 93 262 3.0 7.0 0.00 0.00 0.00 42 1018.0
20260831175236 93 257 4.0 5.0 0.00 0.00 0.00 43 1018.0
20260831174736 93 252 5.0 8.0 0.00 0.00 0.00 44 1018.0
20260831174236 92 249 3.0 5.0 0.00 0.00 0.00 43 1018.0
20260831173735 92 278 4.0 8.0 0.00 0.00 0.00 43 1018.0
20260831173235 92 243 3.0 8.0 0.00 0.00 0.00 43 1018.0
20260831172735 92 249 3.0 7.0 0.00 0.00 0.00 43 1018.0
20260831172236 92 238 3.0 7.0 0.00 0.00 0.00 43 1018.0
20260831171736 92 253 6.0 6.0 0.00 0.00 0.00 44 1018.0
20260831171235 92 240 4.0 6.0 0.00 0.00 0.00 43 1018.0
20260831170735 92 259 3.0 6.0 0.00 0.00 0.00 43 1018.0
20260831170236 92 247 5.0 8.0 0.00 0.00 0.00 43 1018.0
20260831165735 91 234 6.0 6.0 0.00 0.00 0.00 45 1018.0
20260831165235 91 239 4.0 6.0 0.00 0.00 0.00 45 1018.0
20260831164735 90 236 3.0 7.0 0.00 0.00 0.00 45 1018.0
20260831164236 90 238 2.0 5.0 0.00 0.00 0.00 46 1018.0
20260831163735 89 272 4.0 5.0 0.00 0.00 0.00 47 1019.0
20260831163236 89 235 3.0 6.0 0.00 0.00 0.00 47 1018.0
20260831162735 89 239 4.0 8.0 0.00 0.00 0.00 47 1019.0
20260831162236 89 268 4.0 7.0 0.00 0.00 0.00 47 1018.0
20260831161736 88 249 2.0 6.0 0.00 0.00 0.00 48 1018.0
20260831161236 88 252 6.0 6.0 0.00 0.00 0.00 47 1019.0
20260831160737 88 232 5.0 7.0 0.00 0.00 0.00 47 1019.0
20260831160235 88 258 3.0 4.0 0.00 0.00 0.00 48 1019.0
20260831155735 88 244 4.0 7.0 0.00 0.00 0.00 47 1019.0
20260831155235 87 221 4.0 6.0 0.00 0.00 0.00 48 1019.0
20260831154736 87 263 4.0 5.0 0.00 0.00 0.00 48 1019.0
20260831154235 87 233 4.0 7.0 0.00 0.00 0.00 49 1019.0
20260831153736 87 248 4.0 5.0 0.00 0.00 0.00 49 1019.0
20260831153236 87 234 3.0 6.0 0.00 0.00 0.00 49 1019.0
20260831152351 87 255 4.0 5.0 0.00 0.00 0.00 49 1019.0
20260831151735 87 251 3.0 5.0 0.00 0.00 0.00 49 1019.0
20260831151236 85 254 2.0 5.0 0.00 0.00 0.00 50 1019.0